[[{"header":{"parameterUnit":"m.s-1","parameterCategory":1,"la1":30.2991,"la2":30.254,"lo1":-89.0895,"lo2":-89.0444,"dy":0.0017,"dx":0.0017,"nx":28,"ny":28,"refTime":"2024-07-07T09:00:00:Z","depth":0,"parameterNumber":2,"parameterNumberName":"U-component_of_WINDS"},"data":[0,0,0,0,0,0,0,0,0,0,0,0,0,0,0,0,0,0,0,0,0,0,0,0,0,0,0,0,0,0,0,0,0,0,0,0,0,0,0,0,0,0,0,0,0,0,0,0,0,0,0,0,0,0,0,0,0,0,-3.6759,-3.6759,0,-3.6792,-3.6792,-3.6792,-3.6769,-3.6768,-3.6767,-3.6766,-3.6798,-3.68,-3.6802,0,0,0,0,0,0,0,0,0,0,0,0,0,-3.6675,-3.6677,-3.6759,-3.6759,-3.676,-3.6792,-3.6792,-3.6793,-3.6769,-3.6768,-3.6767,-3.6765,-3.6798,-3.68,-3.6802,0,0,0,0,0,0,0,0,0,0,0,0,0,-3.671,-3.6677,-3.6759,-3.6752,-3.6752,-3.6792,-3.6792,-3.6793,-3.6769,-3.6768,-3.6766,-3.6765,-3.6797,-3.68,-3.6802,-3.6851,0,0,-3.6811,-3.6812,0,0,0,0,0,0,0,0,-3.6708,-3.6713,-3.6752,-3.6752,-3.6752,-3.6775,-3.6774,-3.6812,-3.677,-3.6763,-3.6766,-3.6764,-3.6792,-3.6795,-3.6804,-3.6852,-3.6854,-3.6811,-3.6813,-3.6814,-3.6815,0,0,0,0,0,0,0,-3.6706,-3.6712,-3.6772,-3.6753,-3.6753,-3.6747,-3.675,-3.6782,-3.6785,-3.6763,-3.6761,-3.6766,-3.6791,-3.6802,-3.6805,-3.6854,-3.6811,-3.6813,-3.6815,-3.6816,-3.6943,-3.6945,0,0,0,0,0,0,-3.6704,-3.671,-3.6771,-3.6773,-3.6726,-3.675,-3.6753,-3.6769,-3.6785,-3.6786,-3.6767,-3.6765,-3.6798,-3.6802,-3.6806,-3.6863,-3.6814,-3.6816,-3.6818,-3.6942,-3.6944,-3.6946,0,0,0,0,0,0,-3.6702,-3.671,-3.6769,-3.6741,-3.6748,-3.6753,-3.6771,-3.677,-3.6781,-3.6788,-3.6789,-3.6777,-3.6797,-3.6802,-3.684,-3.6864,-3.6818,-3.682,-3.694,-3.6942,-3.6945,-3.6978,0,0,0,0,0,0,-3.67,-3.6709,-3.6728,-3.6741,-3.675,-3.6803,-3.6772,-3.6772,-3.6786,-3.6783,-3.6798,-3.6798,-3.6796,-3.6836,-3.6843,-3.6867,-3.6822,-3.6937,-3.6941,-3.6944,-3.6975,-3.6981,-3.6987,0,0,0,0,0,-3.6697,-3.6735,-3.6729,-3.6736,-3.6773,-3.6804,-3.6809,-3.6805,-3.6788,-3.6806,-3.6811,-3.6798,-3.6861,-3.684,-3.6847,-3.6873,-3.6936,-3.694,-3.6944,-3.6972,-3.698,-3.6987,0,0,0,0,0,0,-3.6723,-3.6737,-3.673,-3.6773,-3.6788,-3.68,-3.6823,-3.6814,-3.6834,-3.683,-3.6825,-3.6828,-3.6868,-3.6874,-3.6851,-3.692,-3.6895,-3.6901,-3.6914,-3.6922,-3.6928,-3.6925,-3.6825,0,0,0,0,0,-3.6734,-3.6759,-3.677,-3.6807,-3.6815,-3.6818,-3.6832,-3.6828,-3.6843,-3.6848,-3.6856,-3.687,-3.6893,-3.6908,-3.693,-3.6976,-3.6979,-3.6997,-3.7004,-3.7009,-3.7013,-3.7038,-3.7046,-3.6958,-3.6958,-3.6958,0,0,-3.6757,-3.6768,-3.6783,-3.6813,-3.6824,-3.6849,-3.6823,-3.6851,-3.687,-3.6853,-3.6888,-3.6895,-3.6911,-3.6953,-3.6972,-3.6959,-3.7038,-3.7014,-3.7018,-3.7019,-3.7043,-3.7051,-3.7058,-3.6961,-3.6961,-3.696,0,0,-3.6811,-3.6822,-3.6854,-3.6866,-3.6883,-3.6885,-3.6893,-3.6907,-3.6911,-3.6947,-3.6935,-3.6957,-3.6997,-3.7008,-3.702,-3.708,-3.7068,-3.7087,-3.7119,-3.7143,-3.715,-3.7156,-3.7177,-3.7184,-3.7092,-3.7092,-3.7092,0,-3.6836,-3.6875,-3.6872,-3.6901,-3.6914,-3.6901,-3.6934,-3.6945,-3.6968,-3.6978,-3.6964,-3.7014,-3.7023,-3.7068,-3.7083,-3.7093,-3.7101,-3.7084,-3.7149,-3.7155,-3.7161,-3.718,-3.7188,-3.7094,-3.7094,-3.7094,-3.7093,0,-3.6905,-3.6932,-3.6956,-3.6979,-3.6996,-3.7026,-3.7028,-3.7045,-3.7041,-3.7044,-3.7082,-3.7093,-3.7117,-3.7128,-3.7123,-3.7172,-3.7164,-3.715,-3.7124,-3.7171,-3.719,-3.7197,-3.7097,-3.7096,-3.7096,-3.7095,0,0,-3.6974,-3.6997,-3.7006,-3.7016,-3.7035,-3.7055,-3.7086,-3.7109,-3.7124,-3.7141,-3.7166,-3.7201,-3.7188,-3.7201,-3.7198,-3.722,-3.7266,-3.7203,-3.7203,-3.7213,-3.732,-3.7329,-3.7338,-3.7259,-3.7261,-3.7262,-3.7318,0,-3.7028,-3.7082,-3.7081,-3.713,-3.7154,-3.7143,-3.717,-3.7184,-3.7189,-3.721,-3.7215,-3.7239,-3.7222,-3.7229,-3.725,-3.7256,-3.7287,-3.7252,-3.7282,-3.7283,-3.7276,-3.7347,-3.7357,-3.7409,-3.7325,-3.7326,-3.7327,0,-3.7098,-3.7118,-3.717,-3.7185,-3.7195,-3.7219,-3.7241,-3.7262,-3.7278,-3.728,-3.7295,-3.729,-3.7321,-3.7296,-3.7338,-3.7314,-3.7327,-3.7332,-3.7334,-3.7335,-3.7307,-3.7349,-3.7426,-3.7433,-3.7339,-3.7338,-3.7337,0,-3.7142,-3.7182,-3.7218,-3.7228,-3.7247,-3.7264,-3.7273,-3.7287,-3.7302,-3.7321,-3.7331,-3.7354,-3.7366,-3.7383,-3.7384,-3.7366,-3.7426,-3.7402,-3.7428,-3.7428,-3.744,-3.7439,-3.7518,-3.7451,-3.745,-3.745,-3.745,0,-3.7202,-3.7234,-3.7238,-3.726,-3.7296,-3.7295,-3.733,-3.7337,-3.7351,-3.7374,-3.7366,-3.7388,-3.7388,-3.741,-3.7411,-3.7446,-3.7452,-3.7453,-3.7453,-3.7453,-3.7453,-3.746,-3.7456,-3.7452,-3.7452,-3.7452,-3.7451,0,-3.7257,-3.7261,-3.7299,-3.7315,-3.732,-3.7345,-3.7358,-3.7379,-3.7384,-3.7413,-3.742,-3.7427,-3.7453,-3.7456,-3.7486,-3.7486,-3.7528,-3.7524,-3.7522,-3.7521,-3.7547,-3.7544,-3.7632,-3.7643,-3.757,-3.7571,-3.7571,0,-3.7294,-3.7318,-3.7336,-3.7352,-3.7361,-3.7386,-3.7401,-3.7401,-3.7417,-3.7438,-3.7457,-3.7482,-3.7502,-3.7544,-3.7552,-3.7575,-3.7571,-3.76,-3.7574,-3.7574,-3.757,-3.7568,-3.757,-3.7605,-3.7606,-3.7606,-3.7607,0,-3.7359,-3.736,-3.7382,-3.7405,-3.7423,-3.7442,-3.7459,-3.7472,-3.7474,-3.7493,-3.7519,-3.7535,-3.7566,-3.7591,-3.7614,-3.7623,-3.7615,-3.7615,-3.7622,-3.7622,-3.762,-3.762,-3.7535,-3.7613,-3.7612,-3.7612,-3.7611,-3.7611,-3.7405,-3.7426,-3.7442,-3.7467,-3.748,-3.7497,-3.7517,-3.7525,-3.7547,-3.7573,-3.7572,-3.7601,-3.7617,-3.7647,-3.7658,-3.7681,-3.7671,-3.7682,-3.7684,-3.7686,-3.7688,-3.7617,-3.7685,-3.7685,-3.7685,-3.7685,-3.7685,0,-3.7469,-3.7479,-3.7502,-3.7526,-3.7546,-3.7538,-3.7557,-3.7574,-3.76,-3.7616,-3.7636,-3.7667,-3.7691,-3.7702,-3.7726,-3.7742,-3.7739,-3.7748,-3.7746,-3.7748,-3.7696,-3.7687,-3.775,-3.775,-3.775,-3.775,-3.775,-3.775,-3.7504,-3.7539,-3.7543,-3.7584,-3.7594,-3.7623,-3.7634,-3.7649,-3.7662,-3.7697,-3.7717,-3.7724,-3.7738,-3.7763,-3.7785,-3.7787,-3.7796,-3.7807,-3.7807,-3.7758,-3.7752,-3.7745,-3.7737,-3.7809,-3.7809,-3.7857,-3.7857,-3.7858]},{"header":{"parameterUnit":"m.s-1","parameterCategory":1,"la1":30.2991,"la2":30.254,"lo1":-89.0895,"lo2":-89.0444,"dy":0.0017,"dx":0.0017,"nx":28,"ny":28,"refTime":"2024-07-07T09:00:00:Z","depth":0,"parameterNumber":3,"parameterNumberName":"V-component_of_WINDS"},"data":[0,0,0,0,0,0,0,0,0,0,0,0,0,0,0,0,0,0,0,0,0,0,0,0,0,0,0,0,0,0,0,0,0,0,0,0,0,0,0,0,0,0,0,0,0,0,0,0,0,0,0,0,0,0,0,0,0,0,5.3663,5.3663,0,5.3632,5.3632,5.3631,5.3561,5.356,5.3558,5.3557,5.3528,5.3528,5.3529,0,0,0,0,0,0,0,0,0,0,0,0,0,5.3664,5.3664,5.3663,5.3663,5.3662,5.3632,5.3632,5.3631,5.3562,5.356,5.3558,5.3556,5.3527,5.3528,5.3529,0,0,0,0,0,0,0,0,0,0,0,0,0,5.3651,5.3664,5.3663,5.3624,5.362,5.3632,5.3632,5.3631,5.3562,5.356,5.3558,5.3556,5.3527,5.3528,5.3529,5.3578,0,0,5.3532,5.3532,0,0,0,0,0,0,0,0,5.3652,5.3651,5.363,5.3626,5.3622,5.3598,5.3621,5.3613,5.3563,5.3584,5.3557,5.3555,5.3553,5.3552,5.3551,5.3576,5.3575,5.3532,5.3532,5.3532,5.3533,0,0,0,0,0,0,0,5.3653,5.3652,5.3651,5.363,5.3625,5.3608,5.3604,5.3619,5.3581,5.3582,5.3577,5.3574,5.3551,5.355,5.355,5.3575,5.3532,5.3532,5.3533,5.3533,5.3639,5.3641,0,0,0,0,0,0,5.3659,5.3654,5.3652,5.365,5.3632,5.361,5.3605,5.3608,5.3581,5.3574,5.3576,5.3571,5.355,5.3549,5.3548,5.3603,5.3532,5.3533,5.3534,5.3637,5.364,5.3642,0,0,0,0,0,0,5.366,5.366,5.3653,5.365,5.3648,5.3612,5.3616,5.3609,5.3608,5.3576,5.3569,5.3582,5.3548,5.3547,5.3571,5.3601,5.3534,5.3534,5.3634,5.3638,5.3641,5.3714,0,0,0,0,0,0,5.366,5.366,5.3678,5.3651,5.3649,5.3675,5.3618,5.361,5.3609,5.3603,5.358,5.3575,5.3546,5.357,5.3572,5.3601,5.3535,5.3631,5.3636,5.364,5.3709,5.372,5.3729,0,0,0,0,0,5.366,5.37,5.3679,5.3679,5.3669,5.3677,5.3676,5.3642,5.3612,5.363,5.361,5.3575,5.3598,5.3573,5.3574,5.3605,5.3629,5.3635,5.364,5.3704,5.3718,5.3729,0,0,0,0,0,0,5.3732,5.3696,5.3672,5.3704,5.3694,5.3665,5.3686,5.3657,5.3656,5.3649,5.3608,5.3604,5.3633,5.3621,5.3594,5.3651,5.3608,5.3614,5.3657,5.3669,5.3679,5.3681,5.3536,0,0,0,0,0,5.3751,5.376,5.3728,5.376,5.3756,5.3723,5.3725,5.3699,5.3688,5.3683,5.3664,5.3655,5.366,5.3664,5.3667,5.3707,5.3702,5.3729,5.3739,5.3748,5.3753,5.3774,5.3786,5.3659,5.3659,5.3659,0,0,5.3792,5.3773,5.3781,5.3774,5.3763,5.3774,5.3719,5.3733,5.374,5.3685,5.3706,5.3693,5.368,5.3712,5.3725,5.3703,5.3787,5.3754,5.3761,5.3762,5.378,5.3792,5.3803,5.3663,5.3662,5.3662,0,0,5.387,5.3857,5.3882,5.3872,5.3857,5.3834,5.384,5.3816,5.3805,5.3825,5.3784,5.3794,5.3803,5.3795,5.3793,5.387,5.3838,5.3872,5.3925,5.3945,5.3955,5.3964,5.3991,5.4002,5.3878,5.3878,5.3878,0,5.3922,5.3936,5.3898,5.3914,5.3913,5.3863,5.3889,5.3882,5.3868,5.3869,5.3844,5.3855,5.3843,5.3873,5.3892,5.3891,5.3897,5.3874,5.3957,5.3965,5.3973,5.3998,5.4009,5.3882,5.3882,5.3881,5.3881,0,5.4001,5.4011,5.4033,5.4021,5.4021,5.4042,5.4009,5.4015,5.399,5.3971,5.3993,5.3976,5.3975,5.3981,5.3957,5.4008,5.3994,5.3964,5.392,5.3989,5.4013,5.4022,5.3888,5.3887,5.3885,5.3884,0,0,5.4122,5.409,5.4098,5.4092,5.4072,5.4079,5.4099,5.4097,5.4103,5.4096,5.4111,5.4121,5.4092,5.409,5.4065,5.4083,5.4146,5.405,5.405,5.4068,5.4201,5.4223,5.4235,5.4125,5.4127,5.4128,5.4202,0,5.4196,5.4225,5.4193,5.4229,5.4239,5.4193,5.4209,5.4199,5.4182,5.4188,5.4169,5.4177,5.4139,5.4137,5.4154,5.4135,5.4172,5.4129,5.4139,5.414,5.4143,5.4248,5.4271,5.4342,5.4211,5.4212,5.4214,0,5.4285,5.4281,5.4319,5.4296,5.4299,5.4315,5.4311,5.4317,5.4305,5.4292,5.4289,5.4259,5.4277,5.4235,5.426,5.4232,5.4234,5.4226,5.4228,5.4227,5.418,5.4249,5.4363,5.4374,5.4228,5.4227,5.4226,0,5.4369,5.4374,5.4397,5.4394,5.4368,5.438,5.4371,5.4357,5.4358,5.4355,5.4356,5.4356,5.4355,5.4356,5.4328,5.43,5.4356,5.4312,5.4346,5.4346,5.4359,5.4358,5.4474,5.4362,5.4362,5.4361,5.4361,0,5.4454,5.4479,5.4435,5.4449,5.4476,5.4439,5.4467,5.4452,5.4441,5.4452,5.4413,5.4424,5.4385,5.4393,5.4371,5.4395,5.4395,5.4385,5.4379,5.4388,5.439,5.4389,5.4383,5.4364,5.4363,5.4363,5.4362,0,5.4553,5.4524,5.4546,5.4521,5.4515,5.4536,5.4514,5.4527,5.4507,5.4522,5.4524,5.4494,5.4501,5.4472,5.4475,5.446,5.4496,5.4481,5.4499,5.4495,5.453,5.4527,5.4649,5.4663,5.4543,5.4544,5.4545,0,5.4608,5.4626,5.4603,5.4607,5.4599,5.4607,5.4608,5.4573,5.4576,5.4564,5.4579,5.4583,5.4584,5.4598,5.4577,5.4579,5.4564,5.4607,5.4564,5.4573,5.4564,5.4563,5.4565,5.4615,5.4617,5.4618,5.4619,0,5.471,5.4695,5.4698,5.4696,5.4698,5.4695,5.469,5.4696,5.4659,5.4664,5.4671,5.4672,5.4674,5.4679,5.4677,5.4667,5.4638,5.4633,5.4641,5.465,5.466,5.4655,5.4523,5.463,5.4629,5.4628,5.4628,5.4627,5.4789,5.4803,5.4788,5.4793,5.4785,5.4781,5.4791,5.4773,5.4778,5.4777,5.4756,5.4767,5.4756,5.475,5.4744,5.4752,5.4732,5.4744,5.4746,5.475,5.4756,5.4659,5.4752,5.4751,5.4751,5.4751,5.4751,0,5.4888,5.4877,5.4881,5.4875,5.4879,5.485,5.4842,5.4848,5.4857,5.4849,5.4851,5.4859,5.4864,5.4843,5.4845,5.4856,5.4842,5.4858,5.4856,5.4855,5.4774,5.4766,5.4869,5.4869,5.4869,5.4869,5.4869,5.4869,5.4941,5.4962,5.4946,5.4964,5.4953,5.4962,5.4961,5.4957,5.495,5.4961,5.4964,5.495,5.4938,5.4938,5.4942,5.4936,5.4938,5.4958,5.4948,5.4872,5.486,5.4849,5.4842,5.4959,5.4959,5.5028,5.5028,5.5029]}]]